Flag for Gaza Strip Weather past 2 weeks in Gaza, Gaza Strip

Now
90 °F

Passing clouds.


Feels Like: 95 °F
Forecast: 74 / 85 °F
Wind: 10 mph from Northwest

Location: Ben Gurion International Airport

Current Time: Jul 30, 2014 at 5:18:36 PM

Latest Report: Jul 30, 2014 at 4:50 PM


Visibility: N/A

Pressure: 29.74 "Hg

Humidity: 52%

Dew point: 70 °F

Location of GazaLocation

Historic Weather in Gaza — Graph

°F

Gaza temperature yesterday

Maximum temperature yesterday: 90 °F (at 11:50 AM)
Minimum temperature yesterday: 77 °F (at 2:50 AM)
Average temperature yesterday: 83 °F

Past Weeks' High & Low Weather Summary

 TemperatureHumidityPressure
High91 °F (Jul 30, 11:20 AM)89% (Jul 24, 3:20 AM)29.92 "Hg (Jul 24, 3:20 AM)
Low72 °F (Jul 26, 5:50 AM)46% (Jul 16, 11:20 AM)29.71 "Hg (Jul 25, 3:20 PM)
Average81 °F67%29.80 "Hg
* Reported Jul 15 4:20 PM — Jul 30 4:20 PM, Gaza, Weather by CustomWeather, © 2014

Note: Actual official high and low records may vary slightly from our data, if they occured in-between our weather recording intervals... More about our weather records

Advertising

Gaza weather history for previous 24 hours

 ConditionsComfort  
Time TempWeatherWind HumidityBarometerVisibility
4:20 PM
Jul 30
90 °FPassing clouds.12 mph52%29.74 "HgN/A
3:50 PM90 °FSunny.14 mph49%29.74 "Hg10 mi
3:20 PM90 °FSunny.15 mph52%29.74 "Hg10 mi
2:50 PM91 °FPassing clouds.13 mph46%29.74 "HgN/A
2:20 PM91 °FPassing clouds.12 mph46%29.74 "HgN/A
1:50 PM91 °FPassing clouds.10 mph49%29.77 "HgN/A
1:20 PM90 °FSunny.12 mph52%29.77 "Hg10 mi
12:50 PM91 °FPassing clouds.12 mph49%29.74 "HgN/A
12:20 PM91 °FPassing clouds.10 mph52%29.74 "HgN/A
11:50 AM90 °FPassing clouds.8 mph55%29.74 "HgN/A
11:20 AM91 °FPassing clouds.5 mph49%29.77 "HgN/A
10:50 AM90 °FPassing clouds.3 mph52%29.77 "HgN/A
10:20 AM86 °FPassing clouds.6 mph59%29.77 "HgN/A
9:50 AM86 °FScattered clouds.6 mph62%29.77 "HgN/A
9:20 AM82 °FScattered clouds.6 mph70%29.77 "HgN/A
8:50 AM82 °FScattered clouds.7 mph70%29.77 "HgN/A
8:20 AM79 °FScattered clouds.8 mph74%29.77 "HgN/A
7:50 AM79 °FScattered clouds.8 mph70%29.77 "Hg6 mi
7:20 AM77 °FPassing clouds.8 mph69%29.77 "Hg6 mi
6:50 AM75 °FPassing clouds.7 mph74%29.74 "HgN/A
6:20 AM73 °FPassing clouds.8 mph78%29.74 "HgN/A
5:50 AM73 °FPassing clouds.7 mph78%29.74 "HgN/A
5:20 AM73 °FPassing clouds.8 mph78%29.74 "HgN/A
4:50 AM73 °FPassing clouds.8 mph83%29.74 "HgN/A
4:20 AM75 °FPassing clouds.6 mph83%29.74 "HgN/A
3:50 AM75 °FPassing clouds.5 mph83%29.74 "HgN/A
3:20 AM75 °FClear.6 mph89%29.74 "Hg10 mi
2:50 AM75 °FClear.5 mph89%29.74 "Hg10 mi
2:20 AM77 °FClear.6 mph83%29.74 "Hg10 mi
1:50 AM77 °FClear.6 mph83%29.74 "Hg10 mi
1:20 AM77 °FClear.6 mph83%29.77 "Hg10 mi
12:50 AM77 °FClear.6 mph83%29.77 "Hg10 mi
12:20 AM79 °FClear.5 mph79%29.77 "Hg10 mi
11:50 PM
Jul 29
79 °FClear.5 mph79%29.77 "Hg10 mi
11:20 PM79 °FClear.5 mph79%29.77 "Hg10 mi
10:50 PM79 °FClear.5 mph79%29.77 "Hg10 mi
10:20 PM81 °FPassing clouds.3 mph74%29.77 "HgN/A
9:50 PM81 °FPassing clouds.2 mph74%29.77 "HgN/A
9:20 PM81 °FPassing clouds.3 mph74%29.77 "HgN/A
8:50 PM81 °FPassing clouds.3 mph74%29.77 "HgN/A
8:20 PM81 °FPassing clouds.6 mph74%29.77 "HgN/A
7:50 PM82 °FSunny.7 mph70%29.77 "Hg10 mi
7:20 PM82 °FPassing clouds.9 mph70%29.77 "HgN/A
6:50 PM84 °FPassing clouds.10 mph70%29.77 "HgN/A
6:20 PM86 °FPassing clouds.10 mph66%29.77 "HgN/A
5:50 PM88 °FPassing clouds.12 mph62%29.77 "HgN/A
5:20 PM88 °FPassing clouds.10 mph62%29.77 "HgN/A
Weather by CustomWeather, © 2014

See weather overviewHow to use our weather pages